Time,TemperatureF,DewpointF,PressureIn,WindDirection,WindDirectionDegrees,WindSpeedMPH,WindSpeedGustMPH,Humidity,HourlyPrecipIn,Conditions,Clouds,dailyrainin,SoftwareType,DateUTC
2013-09-20 00:01:00,70.4,68.9,29.96,South,182,5.0,11.0,95,0.00,,BKN060,0.00,VWS V14.01,2013-09-20 05:01:00,
2013-09-20 00:06:00,70.6,67.2,29.96,South,189,3.0,14.0,89,0.02,,BKN060,0.02,VWS V14.01,2013-09-20 05:06:00,
2013-09-20 00:11:00,70.4,69.2,29.96,SW,224,3.0,17.0,96,0.04,,BKN060,0.04,VWS V14.01,2013-09-20 05:11:00,
2013-09-20 00:16:00,70.1,69.2,29.95,South,185,0.0,17.0,97,0.06,,BKN060,0.06,VWS V14.01,2013-09-20 05:16:00,
2013-09-20 00:21:00,69.8,69.2,29.95,SSW,198,0.0,17.0,98,0.09,,BKN060,0.09,VWS V14.01,2013-09-20 05:21:00,
2013-09-20 00:26:00,69.6,69.0,29.95,South,178,0.0,17.0,98,0.10,,BKN060,0.10,VWS V14.01,2013-09-20 05:26:00,
2013-09-20 00:32:00,69.4,69.1,29.95,South,181,0.0,17.0,99,0.10,,BKN060,0.10,VWS V14.01,2013-09-20 05:32:00,
2013-09-20 00:37:00,69.3,69.0,29.95,South,181,0.0,17.0,99,0.11,,BKN060,0.11,VWS V14.01,2013-09-20 05:37:00,
2013-09-20 00:42:00,69.3,69.0,29.95,South,181,0.0,17.0,99,0.11,,BKN060,0.11,VWS V14.01,2013-09-20 05:42:00,
2013-09-20 00:47:00,69.4,69.1,29.94,South,181,0.0,17.0,99,0.11,,BKN060,0.11,VWS V14.01,2013-09-20 05:47:00,
2013-09-20 00:52:00,69.4,69.4,29.94,South,181,0.0,17.0,100,0.11,,BKN060,0.11,VWS V14.01,2013-09-20 05:52:00,
2013-09-20 00:57:00,69.4,69.4,29.94,South,181,0.0,17.0,100,0.11,,BKN060,0.11,VWS V14.01,2013-09-20 05:57:00,
2013-09-20 01:02:00,69.4,69.4,29.94,South,181,0.0,0.0,100,0.12,,-RA,0.12,VWS V14.01,2013-09-20 06:02:00,
2013-09-20 01:07:00,69.4,69.4,29.94,South,181,0.0,0.0,100,0.12,,-RA,0.12,VWS V14.01,2013-09-20 06:07:00,
2013-09-20 01:12:00,69.3,69.3,29.94,South,182,0.0,2.0,100,0.12,,-RA,0.12,VWS V14.01,2013-09-20 06:12:00,
2013-09-20 01:17:00,69.3,69.3,29.94,South,182,0.0,2.0,100,0.13,,-RA,0.13,VWS V14.01,2013-09-20 06:17:00,
2013-09-20 01:22:00,69.1,69.1,29.94,South,181,0.0,2.0,100,0.13,,-RA,0.13,VWS V14.01,2013-09-20 06:22:00,
2013-09-20 01:27:00,69.1,69.1,29.94,South,182,0.0,2.0,100,0.13,,-RA,0.13,VWS V14.01,2013-09-20 06:27:00,
2013-09-20 01:32:00,68.9,68.9,29.92,South,182,0.0,2.0,100,0.13,,-RA,0.13,VWS V14.01,2013-09-20 06:32:00,
2013-09-20 01:37:00,68.9,68.9,29.92,South,182,0.0,2.0,100,0.13,,-RA,0.13,VWS V14.01,2013-09-20 06:37:00,
2013-09-20 01:42:00,68.8,68.8,29.92,South,181,0.0,2.0,100,0.13,,-RA,0.13,VWS V14.01,2013-09-20 06:42:00,
2013-09-20 01:47:00,68.8,68.8,29.93,South,181,0.0,2.0,100,0.14,,-RA,0.14,VWS V14.01,2013-09-20 06:47:00,
2013-09-20 01:52:00,68.8,68.8,29.93,South,182,0.0,2.0,100,0.14,,-RA,0.14,VWS V14.01,2013-09-20 06:52:00,
2013-09-20 01:57:00,69.1,69.1,29.93,South,189,5.0,5.0,100,0.14,,-RA,0.14,VWS V14.01,2013-09-20 06:57:00,
2013-09-20 02:02:00,69.1,69.1,29.96,SSW,196,0.0,2.0,100,0.02,,-RA,0.14,VWS V14.01,2013-09-20 07:02:00,
2013-09-20 02:07:00,69.1,69.1,29.96,SSW,196,0.0,2.0,100,0.02,,-RA,0.14,VWS V14.01,2013-09-20 07:07:00,
2013-09-20 02:12:00,68.9,68.9,29.96,SSW,196,0.0,2.0,100,0.03,,-RA,0.15,VWS V14.01,2013-09-20 07:12:00,
2013-09-20 02:17:00,68.9,68.9,29.98,SSW,196,0.0,2.0,100,0.03,,-RA,0.15,VWS V14.01,2013-09-20 07:17:00,
2013-09-20 02:22:00,68.9,68.9,29.98,SSW,196,0.0,2.0,100,0.03,,-RA,0.15,VWS V14.01,2013-09-20 07:22:00,
2013-09-20 02:27:00,68.9,68.9,29.98,SSW,196,0.0,2.0,100,0.04,,-RA,0.16,VWS V14.01,2013-09-20 07:27:00,
2013-09-20 02:33:00,68.9,68.9,29.98,SSW,196,0.0,2.0,100,0.04,,-RA,0.16,VWS V14.01,2013-09-20 07:33:00,
2013-09-20 02:38:00,68.9,68.9,29.98,SSW,196,0.0,2.0,100,0.05,,-RA,0.17,VWS V14.01,2013-09-20 07:38:00,
2013-09-20 02:43:00,69.1,69.1,29.98,SSW,196,0.0,2.0,100,0.06,,-RA,0.18,VWS V14.01,2013-09-20 07:43:00,
2013-09-20 02:48:00,68.9,68.9,29.99,SSW,196,0.0,2.0,100,0.06,,-RA,0.18,VWS V14.01,2013-09-20 07:48:00,
2013-09-20 02:53:00,68.9,68.9,29.99,SSW,196,0.0,2.0,100,0.07,,-RA,0.19,VWS V14.01,2013-09-20 07:53:00,
2013-09-20 02:58:00,68.8,68.8,29.99,SSW,196,0.0,2.0,100,0.08,,-RA,0.20,VWS V14.01,2013-09-20 07:58:00,
2013-09-20 03:03:00,68.6,68.6,29.99,SSW,196,0.0,0.0,100,0.07,,-RA,0.21,VWS V14.01,2013-09-20 08:03:00,
2013-09-20 03:08:00,68.4,68.4,29.99,SSW,196,0.0,0.0,100,0.08,,-RA,0.22,VWS V14.01,2013-09-20 08:08:00,
2013-09-20 03:13:00,68.4,68.4,29.99,SSW,196,0.0,0.0,100,0.09,,-RA,0.23,VWS V14.01,2013-09-20 08:13:00,
2013-09-20 03:18:00,68.4,68.4,29.98,SSW,196,0.0,0.0,100,0.10,,-RA,0.24,VWS V14.01,2013-09-20 08:18:00,
2013-09-20 03:23:00,68.4,68.4,29.98,SSW,196,0.0,0.0,100,0.11,,-RA,0.25,VWS V14.01,2013-09-20 08:23:00,
2013-09-20 03:28:00,68.4,68.4,29.98,SSW,196,0.0,0.0,100,0.12,,-RA,0.26,VWS V14.01,2013-09-20 08:28:00,
2013-09-20 03:33:00,68.3,68.3,29.98,SSW,196,0.0,0.0,100,0.13,,-RA,0.27,VWS V14.01,2013-09-20 08:33:00,
2013-09-20 03:38:00,68.3,68.3,29.98,SSW,196,0.0,0.0,100,0.13,,-RA,0.27,VWS V14.01,2013-09-20 08:38:00,
2013-09-20 03:43:00,68.1,68.1,29.98,SSW,196,0.0,0.0,100,0.13,,-RA,0.27,VWS V14.01,2013-09-20 08:43:00,
2013-09-20 03:48:00,67.9,67.9,29.97,SSW,196,0.0,0.0,100,0.14,,-RA,0.28,VWS V14.01,2013-09-20 08:48:00,
2013-09-20 03:53:00,67.9,67.9,29.97,SSW,196,0.0,0.0,100,0.14,,-RA,0.28,VWS V14.01,2013-09-20 08:53:00,
2013-09-20 03:59:00,67.9,67.9,29.97,SSW,196,0.0,0.0,100,0.14,,-RA,0.28,VWS V14.01,2013-09-20 08:59:00,
2013-09-20 04:04:00,67.8,67.8,29.97,SSW,196,0.0,0.0,100,0.09,,-RA,0.29,VWS V14.01,2013-09-20 09:04:00,
2013-09-20 04:09:00,67.8,67.8,29.97,SSW,196,0.0,0.0,100,0.09,,-RA,0.29,VWS V14.01,2013-09-20 09:09:00,
2013-09-20 04:14:00,67.8,67.8,29.97,SSW,196,0.0,0.0,100,0.10,,-RA,0.30,VWS V14.01,2013-09-20 09:14:00,
2013-09-20 04:19:00,67.9,67.9,29.97,SSW,196,0.0,0.0,100,0.11,,-RA,0.31,VWS V14.01,2013-09-20 09:19:00,
2013-09-20 04:24:00,68.1,68.1,29.97,SSE,147,0.0,2.0,100,0.12,,-RA,0.32,VWS V14.01,2013-09-20 09:24:00,
2013-09-20 04:29:00,68.1,68.1,29.97,ESE,107,2.0,2.0,100,0.13,,-RA,0.33,VWS V14.01,2013-09-20 09:29:00,
2013-09-20 04:34:00,67.9,67.9,29.95,ENE,76,1.0,6.0,100,0.13,,-RA,0.33,VWS V14.01,2013-09-20 09:34:00,
2013-09-20 04:39:00,67.8,67.8,29.95,NE,45,2.0,6.0,100,0.14,,-RA,0.34,VWS V14.01,2013-09-20 09:39:00,
2013-09-20 04:44:00,67.8,67.8,29.94,ENE,65,1.0,6.0,100,0.14,,-RA,0.34,VWS V14.01,2013-09-20 09:44:00,
2013-09-20 04:49:00,67.6,67.6,29.94,ENE,64,1.0,6.0,100,0.15,,-RA,0.35,VWS V14.01,2013-09-20 09:49:00,
2013-09-20 04:54:00,67.3,67.3,29.94,East,88,2.0,6.0,100,0.15,,-RA,0.35,VWS V14.01,2013-09-20 09:54:00,
2013-09-20 04:59:00,67.1,67.1,29.95,East,90,0.0,6.0,100,0.15,,-RA,0.35,VWS V14.01,2013-09-20 09:59:00,
2013-09-20 05:04:00,67.1,67.1,29.95,East,79,0.0,2.0,100,0.07,,-RA,0.35,VWS V14.01,2013-09-20 10:04:00,
2013-09-20 05:09:00,67.1,67.1,29.95,ENE,78,0.0,2.0,100,0.07,,-RA,0.35,VWS V14.01,2013-09-20 10:09:00,
2013-09-20 05:14:00,66.9,66.9,29.95,East,79,0.0,2.0,100,0.07,,-RA,0.35,VWS V14.01,2013-09-20 10:14:00,
2013-09-20 05:19:00,66.9,66.9,29.95,East,79,0.0,2.0,100,0.08,,-RA,0.36,VWS V14.01,2013-09-20 10:19:00,
2013-09-20 05:24:00,66.9,66.9,29.95,East,80,0.0,3.0,100,0.08,,-RA,0.36,VWS V14.01,2013-09-20 10:24:00,
2013-09-20 05:29:00,66.9,66.9,29.94,ENE,78,1.0,3.0,100,0.08,,-RA,0.36,VWS V14.01,2013-09-20 10:29:00,
2013-09-20 05:34:00,66.9,66.9,29.94,ENE,76,0.0,3.0,100,0.08,,-RA,0.36,VWS V14.01,2013-09-20 10:34:00,
2013-09-20 05:39:00,66.9,66.9,29.94,ENE,76,0.0,3.0,100,0.08,,-RA,0.36,VWS V14.01,2013-09-20 10:39:00,
2013-09-20 05:44:00,66.8,66.8,29.94,ENE,76,0.0,3.0,100,0.08,,-RA,0.36,VWS V14.01,2013-09-20 10:44:00,
2013-09-20 05:50:00,66.8,66.8,29.94,ENE,76,0.0,3.0,100,0.08,,-RA,0.36,VWS V14.01,2013-09-20 10:50:00,
2013-09-20 05:55:00,66.8,66.8,29.94,ENE,76,0.0,3.0,100,0.08,,-RA,0.36,VWS V14.01,2013-09-20 10:55:00,
2013-09-20 06:00:00,66.8,66.8,29.94,ENE,76,0.0,3.0,100,0.08,,-RA,0.36,VWS V14.01,2013-09-20 11:00:00,
2013-09-20 06:05:00,66.8,66.8,29.94,ENE,76,0.0,0.0,100,0.02,,-RA,0.37,VWS V14.01,2013-09-20 11:05:00,
2013-09-20 06:10:00,66.8,66.8,29.94,ENE,76,0.0,0.0,100,0.02,,-RA,0.37,VWS V14.01,2013-09-20 11:10:00,
2013-09-20 06:15:00,66.8,66.8,29.95,ENE,76,0.0,0.0,100,0.02,,-RA,0.37,VWS V14.01,2013-09-20 11:15:00,
2013-09-20 06:20:00,66.8,66.8,29.95,ENE,76,0.0,0.0,100,0.02,,-RA,0.37,VWS V14.01,2013-09-20 11:20:00,
2013-09-20 06:25:00,66.9,66.9,29.95,ENE,76,0.0,0.0,100,0.02,,-RA,0.37,VWS V14.01,2013-09-20 11:25:00,
2013-09-20 06:30:00,66.8,66.8,29.96,ENE,76,0.0,0.0,100,0.02,,-RA,0.37,VWS V14.01,2013-09-20 11:30:00,
2013-09-20 06:35:00,66.8,66.8,29.96,ENE,76,0.0,0.0,100,0.02,,-RA,0.37,VWS V14.01,2013-09-20 11:35:00,
2013-09-20 06:40:00,66.8,66.8,29.96,ENE,76,0.0,0.0,100,0.03,,-RA,0.38,VWS V14.01,2013-09-20 11:40:00,
2013-09-20 06:45:00,66.8,66.8,29.96,ENE,76,0.0,0.0,100,0.03,,-RA,0.38,VWS V14.01,2013-09-20 11:45:00,
2013-09-20 06:50:00,66.8,66.8,29.96,ENE,76,0.0,0.0,100,0.03,,-RA,0.38,VWS V14.01,2013-09-20 11:50:00,
2013-09-20 06:55:00,66.8,66.8,29.96,ENE,76,0.0,0.0,100,0.03,,-RA,0.38,VWS V14.01,2013-09-20 11:55:00,
2013-09-20 07:00:00,66.6,66.6,29.96,ENE,76,0.0,0.0,100,0.02,,BKN140,0.38,VWS V14.01,2013-09-20 12:00:00,
2013-09-20 07:05:00,66.6,66.6,29.96,ENE,76,0.0,0.0,100,0.02,,BKN140,0.38,VWS V14.01,2013-09-20 12:05:00,
2013-09-20 07:10:00,66.6,66.6,29.96,ENE,76,0.0,0.0,100,0.02,,BKN140,0.38,VWS V14.01,2013-09-20 12:10:00,
2013-09-20 07:15:00,66.6,66.6,29.96,ENE,76,0.0,0.0,100,0.02,,BKN140,0.38,VWS V14.01,2013-09-20 12:15:00,
2013-09-20 07:20:00,66.6,66.6,29.96,ENE,76,0.0,0.0,100,0.02,,BKN140,0.38,VWS V14.01,2013-09-20 12:20:00,
2013-09-20 07:25:00,66.8,66.8,29.96,ENE,76,0.0,0.0,100,0.02,,BKN140,0.38,VWS V14.01,2013-09-20 12:25:00,
2013-09-20 07:31:00,66.8,66.8,29.97,ENE,76,0.0,0.0,100,0.02,,BKN140,0.38,VWS V14.01,2013-09-20 12:31:00,
2013-09-20 07:36:00,66.8,66.8,29.97,ENE,76,0.0,0.0,100,0.02,,BKN140,0.38,VWS V14.01,2013-09-20 12:36:00,
2013-09-20 07:41:00,66.8,66.8,29.97,ENE,76,0.0,0.0,100,0.02,,BKN140,0.38,VWS V14.01,2013-09-20 12:41:00,
2013-09-20 07:46:00,66.8,66.8,29.98,WNW,289,0.0,3.0,100,0.02,,BKN140,0.38,VWS V14.01,2013-09-20 12:46:00,
2013-09-20 07:51:00,66.9,66.9,29.98,WNW,285,1.0,5.0,100,0.02,,BKN140,0.38,VWS V14.01,2013-09-20 12:51:00,
2013-09-20 07:56:00,66.9,66.9,29.98,WNW,285,0.0,5.0,100,0.02,,BKN140,0.38,VWS V14.01,2013-09-20 12:56:00,
2013-09-20 08:01:00,67.1,67.1,29.99,WNW,285,0.0,0.0,100,0.00,,OVC060,0.38,VWS V14.01,2013-09-20 13:01:00,
2013-09-20 08:06:00,67.1,67.1,29.99,WNW,285,0.0,1.0,100,0.00,,OVC060,0.38,VWS V14.01,2013-09-20 13:06:00,
2013-09-20 08:11:00,67.1,67.1,29.99,WNW,285,0.0,2.0,100,0.00,,OVC060,0.38,VWS V14.01,2013-09-20 13:11:00,
2013-09-20 08:16:00,67.3,67.3,29.98,WNW,288,0.0,2.0,100,0.00,,OVC060,0.38,VWS V14.01,2013-09-20 13:16:00,
2013-09-20 08:21:00,67.3,67.3,29.98,WNW,288,0.0,2.0,100,0.00,,OVC060,0.38,VWS V14.01,2013-09-20 13:21:00,
2013-09-20 08:26:00,67.4,67.4,29.98,WNW,288,0.0,2.0,100,0.00,,OVC060,0.38,VWS V14.01,2013-09-20 13:26:00,
2013-09-20 08:31:00,67.6,67.6,29.98,North,354,0.0,2.0,100,0.00,,OVC060,0.38,VWS V14.01,2013-09-20 13:31:00,
2013-09-20 08:36:00,67.8,67.8,29.98,North,349,0.0,2.0,100,0.00,,OVC060,0.38,VWS V14.01,2013-09-20 13:36:00,
2013-09-20 08:41:00,67.8,67.8,29.98,North,349,0.0,2.0,100,0.00,,OVC060,0.38,VWS V14.01,2013-09-20 13:41:00,
2013-09-20 08:46:00,67.9,67.9,29.98,NNW,339,0.0,5.0,100,0.00,,OVC060,0.38,VWS V14.01,2013-09-20 13:46:00,
2013-09-20 08:51:00,68.4,68.4,29.98,North,353,0.0,5.0,100,0.00,,OVC060,0.38,VWS V14.01,2013-09-20 13:51:00,
2013-09-20 08:56:00,68.4,68.4,29.98,NW,325,2.0,5.0,100,0.00,,OVC060,0.38,VWS V14.01,2013-09-20 13:56:00,
2013-09-20 09:02:00,68.1,68.1,29.98,North,354,1.0,2.0,100,0.00,,OVC023,0.38,VWS V14.01,2013-09-20 14:02:00,
2013-09-20 09:07:00,68.3,68.3,29.98,North,357,0.0,6.0,100,0.00,,OVC023,0.38,VWS V14.01,2013-09-20 14:07:00,
2013-09-20 09:12:00,68.1,68.1,29.98,North,1,2.0,7.0,100,0.00,,OVC023,0.38,VWS V14.01,2013-09-20 14:12:00,
2013-09-20 09:17:00,68.1,68.1,29.98,North,10,2.0,7.0,100,0.00,,OVC023,0.38,VWS V14.01,2013-09-20 14:17:00,
2013-09-20 09:22:00,68.1,68.1,29.98,NNW,333,2.0,7.0,100,0.00,,OVC023,0.38,VWS V14.01,2013-09-20 14:22:00,
2013-09-20 09:27:00,68.3,68.3,29.98,North,0,0.0,7.0,100,0.00,,OVC023,0.38,VWS V14.01,2013-09-20 14:27:00,
2013-09-20 09:32:00,68.3,68.3,29.97,North,6,3.0,7.0,100,0.00,,OVC023,0.38,VWS V14.01,2013-09-20 14:32:00,
2013-09-20 09:37:00,68.3,68.3,29.97,NNW,340,0.0,7.0,100,0.00,,OVC023,0.38,VWS V14.01,2013-09-20 14:37:00,
2013-09-20 09:42:00,68.4,68.4,29.97,NW,326,0.0,7.0,100,0.00,,OVC023,0.38,VWS V14.01,2013-09-20 14:42:00,
2013-09-20 09:47:00,68.4,68.4,29.97,North,359,5.0,7.0,100,0.00,,OVC023,0.38,VWS V14.01,2013-09-20 14:47:00,
2013-09-20 09:52:00,68.6,68.6,29.97,NNW,339,0.0,7.0,100,0.00,,OVC023,0.38,VWS V14.01,2013-09-20 14:52:00,
2013-09-20 09:57:00,68.6,68.6,29.97,NNW,332,0.0,7.0,100,0.00,,OVC023,0.38,VWS V14.01,2013-09-20 14:57:00,
2013-09-20 10:02:00,68.6,68.6,29.97,North,352,2.0,3.0,100,0.00,,OVC007,0.38,VWS V14.01,2013-09-20 15:02:00,
2013-09-20 10:08:00,68.8,68.8,29.97,North,359,0.0,3.0,100,0.00,,OVC007,0.38,VWS V14.01,2013-09-20 15:08:00,
2013-09-20 10:13:00,68.9,68.9,29.97,NNW,332,0.0,5.0,100,0.00,,OVC007,0.38,VWS V14.01,2013-09-20 15:13:00,
2013-09-20 10:18:00,68.8,68.8,29.98,North,354,0.0,7.0,100,0.00,,OVC007,0.38,VWS V14.01,2013-09-20 15:18:00,
2013-09-20 10:23:00,68.6,68.6,29.98,North,0,5.0,7.0,100,0.00,,OVC007,0.38,VWS V14.01,2013-09-20 15:23:00,
2013-09-20 10:28:00,68.3,68.3,29.98,North,359,7.0,11.0,100,0.00,,OVC007,0.38,VWS V14.01,2013-09-20 15:28:00,
2013-09-20 10:33:00,67.9,67.9,29.98,East,89,0.0,12.0,100,0.00,,OVC007,0.38,VWS V14.01,2013-09-20 15:33:00,
2013-09-20 10:38:00,67.3,67.3,29.98,WNW,296,0.0,12.0,100,0.00,,OVC007,0.38,VWS V14.01,2013-09-20 15:38:00,
2013-09-20 10:43:00,66.9,66.9,29.98,North,357,10.0,12.0,100,0.00,,OVC007,0.38,VWS V14.01,2013-09-20 15:43:00,
2013-09-20 10:48:00,66.8,66.5,29.99,NNW,329,3.0,12.0,99,0.00,,OVC007,0.38,VWS V14.01,2013-09-20 15:48:00,
2013-09-20 10:53:00,66.8,66.8,29.99,NNE,14,3.0,12.0,100,0.00,,OVC007,0.38,VWS V14.01,2013-09-20 15:53:00,
2013-09-20 10:58:00,66.6,66.6,29.99,NNW,328,0.0,12.0,100,0.00,,OVC007,0.38,VWS V14.01,2013-09-20 15:58:00,
2013-09-20 11:03:00,66.6,66.6,30.00,North,7,2.0,7.0,100,0.00,,OVC011,0.38,VWS V14.01,2013-09-20 16:03:00,
2013-09-20 11:08:00,66.4,66.4,30.00,North,3,0.0,7.0,100,0.00,,OVC011,0.38,VWS V14.01,2013-09-20 16:08:00,
2013-09-20 11:13:00,66.4,66.4,30.00,NW,309,2.0,7.0,100,0.00,,OVC011,0.38,VWS V14.01,2013-09-20 16:13:00,
2013-09-20 11:18:00,66.3,66.3,30.01,North,349,1.0,7.0,100,0.00,,OVC011,0.38,VWS V14.01,2013-09-20 16:18:00,
2013-09-20 11:23:00,66.3,66.3,30.01,North,359,5.0,7.0,100,0.00,,OVC011,0.38,VWS V14.01,2013-09-20 16:23:00,
2013-09-20 11:28:00,66.4,66.4,30.01,NNE,27,0.0,8.0,100,0.00,,OVC011,0.38,VWS V14.01,2013-09-20 16:28:00,
2013-09-20 11:34:00,66.6,66.6,30.00,West,264,0.0,10.0,100,0.00,,OVC011,0.38,VWS V14.01,2013-09-20 16:34:00,
2013-09-20 11:39:00,66.3,66.0,30.00,NNW,332,2.0,10.0,99,0.00,,OVC011,0.38,VWS V14.01,2013-09-20 16:39:00,
2013-09-20 11:44:00,66.0,65.1,30.00,North,350,1.0,10.0,97,0.00,,OVC011,0.38,VWS V14.01,2013-09-20 16:44:00,
2013-09-20 11:49:00,66.0,64.5,30.01,NE,49,3.0,10.0,95,0.00,,OVC011,0.38,VWS V14.01,2013-09-20 16:49:00,
2013-09-20 11:54:00,66.1,64.3,30.01,NNE,25,5.0,10.0,94,0.00,,OVC011,0.38,VWS V14.01,2013-09-20 16:54:00,
2013-09-20 11:59:00,66.4,64.3,30.01,North,352,2.0,10.0,93,0.00,,OVC011,0.38,VWS V14.01,2013-09-20 16:59:00,
2013-09-20 12:04:00,66.6,64.2,30.01,SE,128,0.0,7.0,92,0.00,,BKN100,0.38,VWS V14.01,2013-09-20 17:04:00,
2013-09-20 12:09:00,66.8,63.8,30.01,North,6,7.0,10.0,90,0.00,,BKN100,0.38,VWS V14.01,2013-09-20 17:09:00,
2013-09-20 12:14:00,66.8,63.1,30.02,NW,304,6.0,12.0,88,0.00,,BKN100,0.38,VWS V14.01,2013-09-20 17:14:00,
2013-09-20 12:19:00,66.8,62.8,30.02,NNE,30,2.0,12.0,87,0.00,,BKN100,0.38,VWS V14.01,2013-09-20 17:19:00,
2013-09-20 12:24:00,66.9,62.2,30.02,NNE,27,1.0,17.0,85,0.00,,BKN100,0.38,VWS V14.01,2013-09-20 17:24:00,
2013-09-20 12:29:00,67.1,62.5,30.02,NE,49,0.0,17.0,85,0.00,,BKN100,0.38,VWS V14.01,2013-09-20 17:29:00,
2013-09-20 12:34:00,67.3,62.3,30.02,NNE,31,1.0,17.0,84,0.00,,BKN100,0.38,VWS V14.01,2013-09-20 17:34:00,
2013-09-20 12:39:00,67.3,62.0,30.02,NNE,32,0.0,17.0,83,0.00,,BKN100,0.38,VWS V14.01,2013-09-20 17:39:00,
2013-09-20 12:44:00,67.1,61.8,30.01,NW,319,7.0,17.0,83,0.00,,BKN100,0.38,VWS V14.01,2013-09-20 17:44:00,
2013-09-20 12:49:00,67.1,61.4,30.01,North,350,1.0,17.0,82,0.00,,BKN100,0.38,VWS V14.01,2013-09-20 17:49:00,
2013-09-20 12:54:00,67.1,61.4,30.01,NW,320,5.0,17.0,82,0.00,,BKN100,0.38,VWS V14.01,2013-09-20 17:54:00,
2013-09-20 12:59:00,66.9,61.2,30.01,North,1,3.0,17.0,82,0.00,,BKN100,0.38,VWS V14.01,2013-09-20 17:59:00,
2013-09-20 13:04:00,67.1,61.4,30.01,NNW,336,11.0,12.0,82,0.00,,OVC046,0.38,VWS V14.01,2013-09-20 18:04:00,
2013-09-20 13:09:00,67.4,61.4,30.01,North,3,2.0,17.0,81,0.00,,OVC046,0.38,VWS V14.01,2013-09-20 18:09:00,
2013-09-20 13:14:00,67.6,60.9,30.01,North,4,0.0,17.0,79,0.00,,OVC046,0.38,VWS V14.01,2013-09-20 18:14:00,
2013-09-20 13:19:00,68.1,60.6,30.01,NNW,344,10.0,17.0,77,0.00,,OVC046,0.38,VWS V14.01,2013-09-20 18:19:00,
2013-09-20 13:24:00,68.4,60.9,30.01,North,353,0.0,17.0,77,0.00,,OVC046,0.38,VWS V14.01,2013-09-20 18:24:00,
2013-09-20 13:29:00,68.9,61.4,30.00,North,7,2.0,17.0,77,0.00,,OVC046,0.38,VWS V14.01,2013-09-20 18:29:00,
2013-09-20 13:35:00,68.9,61.0,30.00,North,349,5.0,17.0,76,0.00,,OVC046,0.38,VWS V14.01,2013-09-20 18:35:00,
2013-09-20 13:40:00,68.8,60.6,30.00,NNE,24,6.0,17.0,75,0.00,,OVC046,0.38,VWS V14.01,2013-09-20 18:40:00,
2013-09-20 13:45:00,68.6,59.6,29.99,NNE,18,2.0,17.0,73,0.00,,OVC046,0.38,VWS V14.01,2013-09-20 18:45:00,
2013-09-20 13:50:00,68.8,60.6,29.99,NE,34,2.0,17.0,75,0.00,,OVC046,0.38,VWS V14.01,2013-09-20 18:50:00,
2013-09-20 13:55:00,68.6,59.6,29.99,North,0,6.0,17.0,73,0.00,,OVC046,0.38,VWS V14.01,2013-09-20 18:55:00,
2013-09-20 14:00:00,68.6,58.8,29.99,North,359,8.0,17.0,71,0.00,,OVC046,0.38,VWS V14.01,2013-09-20 19:00:00,
2013-09-20 14:05:00,68.6,58.8,29.99,North,359,0.0,12.0,71,0.00,,OVC200,0.38,VWS V14.01,2013-09-20 19:05:00,
2013-09-20 14:10:00,68.8,58.6,29.99,North,7,0.0,12.0,70,0.00,,OVC200,0.38,VWS V14.01,2013-09-20 19:10:00,
2013-09-20 14:15:00,68.9,58.3,29.98,North,8,7.0,12.0,69,0.00,,OVC200,0.38,VWS V14.01,2013-09-20 19:15:00,
2013-09-20 14:20:00,68.9,57.9,29.98,NE,51,0.0,14.0,68,0.00,,OVC200,0.38,VWS V14.01,2013-09-20 19:20:00,
2013-09-20 14:25:00,68.9,58.3,29.98,NE,49,6.0,16.0,69,0.00,,OVC200,0.38,VWS V14.01,2013-09-20 19:25:00,
2013-09-20 14:30:00,68.9,57.5,29.97,North,0,5.0,16.0,67,0.00,,OVC200,0.38,VWS V14.01,2013-09-20 19:30:00,
2013-09-20 14:35:00,68.9,58.7,29.97,NE,42,0.0,16.0,70,0.00,,OVC200,0.38,VWS V14.01,2013-09-20 19:35:00,
2013-09-20 14:40:00,69.1,58.9,29.97,WNW,301,2.0,16.0,70,0.00,,OVC200,0.38,VWS V14.01,2013-09-20 19:40:00,
2013-09-20 14:45:00,69.1,58.1,29.97,North,356,5.0,16.0,68,0.00,,OVC200,0.38,VWS V14.01,2013-09-20 19:45:00,
2013-09-20 14:50:00,69.1,58.5,29.97,NE,34,1.0,16.0,69,0.00,,OVC200,0.38,VWS V14.01,2013-09-20 19:50:00,
2013-09-20 14:55:00,69.3,58.7,29.97,NE,38,5.0,16.0,69,0.00,,OVC200,0.38,VWS V14.01,2013-09-20 19:55:00,
2013-09-20 15:00:00,69.3,59.1,29.97,NNE,17,6.0,12.0,70,0.00,,OVC200,0.38,VWS V14.01,2013-09-20 20:00:00,
2013-09-20 15:06:00,69.3,59.5,29.97,North,6,0.0,12.0,71,0.00,,OVC200,0.38,VWS V14.01,2013-09-20 20:06:00,
2013-09-20 15:11:00,69.4,59.2,29.97,NE,40,0.0,12.0,70,0.00,,OVC200,0.38,VWS V14.01,2013-09-20 20:11:00,
2013-09-20 15:16:00,69.6,59.0,29.97,ENE,62,0.0,12.0,69,0.00,,OVC200,0.38,VWS V14.01,2013-09-20 20:16:00,
2013-09-20 15:21:00,69.6,59.0,29.97,North,359,0.0,12.0,69,0.00,,OVC200,0.38,VWS V14.01,2013-09-20 20:21:00,
2013-09-20 15:26:00,69.8,58.8,29.97,NNE,25,3.0,12.0,68,0.00,,OVC200,0.38,VWS V14.01,2013-09-20 20:26:00,
2013-09-20 15:31:00,69.6,58.6,29.98,NE,34,0.0,12.0,68,0.00,,OVC200,0.38,VWS V14.01,2013-09-20 20:31:00,
2013-09-20 15:36:00,69.6,58.2,29.98,NNE,24,2.0,12.0,67,0.00,,OVC200,0.38,VWS V14.01,2013-09-20 20:36:00,
2013-09-20 15:41:00,69.8,58.4,29.98,North,356,0.0,12.0,67,0.00,,OVC200,0.38,VWS V14.01,2013-09-20 20:41:00,
2013-09-20 15:46:00,69.8,58.4,29.97,North,1,3.0,12.0,67,0.00,,OVC200,0.38,VWS V14.01,2013-09-20 20:46:00,
2013-09-20 15:51:00,69.9,58.5,29.97,NNE,17,0.0,12.0,67,0.00,,OVC200,0.38,VWS V14.01,2013-09-20 20:51:00,
2013-09-20 15:56:00,69.8,58.4,29.97,NE,42,0.0,12.0,67,0.00,,OVC200,0.38,VWS V14.01,2013-09-20 20:56:00,
2013-09-20 16:01:00,69.9,58.5,29.97,North,6,10.0,10.0,67,0.00,,OVC250,0.38,VWS V14.01,2013-09-20 21:01:00,
2013-09-20 16:06:00,69.9,57.2,29.97,NNW,337,3.0,10.0,64,0.00,,OVC250,0.38,VWS V14.01,2013-09-20 21:06:00,
2013-09-20 16:11:00,70.1,57.4,29.97,North,359,2.0,12.0,64,0.00,,OVC250,0.38,VWS V14.01,2013-09-20 21:11:00,
2013-09-20 16:16:00,70.1,56.9,29.96,NNE,18,0.0,12.0,63,0.00,,OVC250,0.38,VWS V14.01,2013-09-20 21:16:00,
2013-09-20 16:22:00,70.3,55.8,29.96,West,260,3.0,12.0,60,0.00,,OVC250,0.38,VWS V14.01,2013-09-20 21:22:00,
2013-09-20 16:27:00,70.1,56.9,29.96,North,3,2.0,12.0,63,0.00,,OVC250,0.38,VWS V14.01,2013-09-20 21:27:00,
2013-09-20 16:32:00,70.3,55.8,29.96,NW,323,7.0,12.0,60,0.00,,OVC250,0.38,VWS V14.01,2013-09-20 21:32:00,
2013-09-20 16:37:00,70.6,56.1,29.96,NW,319,7.0,12.0,60,0.00,,OVC250,0.38,VWS V14.01,2013-09-20 21:37:00,
2013-09-20 16:42:00,70.4,55.9,29.96,NNE,31,3.0,12.0,60,0.00,,OVC250,0.38,VWS V14.01,2013-09-20 21:42:00,
2013-09-20 16:47:00,70.4,55.4,29.96,North,3,0.0,12.0,59,0.00,,OVC250,0.38,VWS V14.01,2013-09-20 21:47:00,
2013-09-20 16:52:00,70.6,55.6,29.96,NE,51,2.0,14.0,59,0.00,,OVC250,0.38,VWS V14.01,2013-09-20 21:52:00,
2013-09-20 16:57:00,70.6,56.1,29.96,North,354,1.0,14.0,60,0.00,,OVC250,0.38,VWS V14.01,2013-09-20 21:57:00,
2013-09-20 17:02:00,70.6,55.6,29.96,North,0,0.0,6.0,59,0.00,,OVC250,0.38,VWS V14.01,2013-09-20 22:02:00,
2013-09-20 17:07:00,70.6,56.1,29.96,North,359,0.0,7.0,60,0.00,,OVC250,0.38,VWS V14.01,2013-09-20 22:07:00,
2013-09-20 17:12:00,70.6,55.1,29.96,NNW,342,3.0,10.0,58,0.00,,OVC250,0.38,VWS V14.01,2013-09-20 22:12:00,
2013-09-20 17:17:00,70.4,54.9,29.96,NNE,18,3.0,10.0,58,0.00,,OVC250,0.38,VWS V14.01,2013-09-20 22:17:00,
2013-09-20 17:22:00,70.3,54.8,29.96,North,359,2.0,10.0,58,0.00,,OVC250,0.38,VWS V14.01,2013-09-20 22:22:00,
2013-09-20 17:27:00,70.3,55.3,29.96,NNE,24,0.0,10.0,59,0.00,,OVC250,0.38,VWS V14.01,2013-09-20 22:27:00,
2013-09-20 17:32:00,70.1,55.1,29.97,North,350,3.0,10.0,59,0.00,,OVC250,0.38,VWS V14.01,2013-09-20 22:32:00,
2013-09-20 17:37:00,70.1,55.6,29.97,North,359,5.0,10.0,60,0.00,,OVC250,0.38,VWS V14.01,2013-09-20 22:37:00,
2013-09-20 17:42:00,70.1,55.6,29.97,NE,42,3.0,10.0,60,0.00,,OVC250,0.38,VWS V14.01,2013-09-20 22:42:00,
2013-09-20 17:47:00,70.1,56.0,29.97,North,359,0.0,10.0,61,0.00,,OVC250,0.38,VWS V14.01,2013-09-20 22:47:00,
2013-09-20 17:52:00,69.9,55.8,29.97,North,0,5.0,11.0,61,0.00,,OVC250,0.38,VWS V14.01,2013-09-20 22:52:00,
2013-09-20 17:57:00,69.8,56.7,29.97,NNW,337,0.0,11.0,63,0.00,,OVC250,0.38,VWS V14.01,2013-09-20 22:57:00,
2013-09-20 18:02:00,69.8,56.7,29.97,North,352,0.0,7.0,63,0.00,,BKN250,0.38,VWS V14.01,2013-09-20 23:02:00,
2013-09-20 18:07:00,69.8,57.1,29.97,NNE,13,1.0,7.0,64,0.00,,BKN250,0.38,VWS V14.01,2013-09-20 23:07:00,
2013-09-20 18:12:00,69.6,57.3,29.97,North,356,0.0,7.0,65,0.00,,BKN250,0.38,VWS V14.01,2013-09-20 23:12:00,
2013-09-20 18:18:00,69.6,56.0,29.97,North,356,0.0,7.0,62,0.00,,BKN250,0.38,VWS V14.01,2013-09-20 23:18:00,
2013-09-20 18:23:00,69.6,56.9,29.97,NNW,339,0.0,7.0,64,0.00,,BKN250,0.38,VWS V14.01,2013-09-20 23:23:00,
2013-09-20 18:28:00,69.4,56.3,29.97,North,1,0.0,7.0,63,0.00,,BKN250,0.38,VWS V14.01,2013-09-20 23:28:00,
2013-09-20 18:33:00,69.4,56.7,29.96,North,0,0.0,7.0,64,0.00,,BKN250,0.38,VWS V14.01,2013-09-20 23:33:00,
2013-09-20 18:38:00,69.3,56.6,29.96,North,3,0.0,7.0,64,0.00,,BKN250,0.38,VWS V14.01,2013-09-20 23:38:00,
2013-09-20 18:43:00,69.1,56.4,29.96,North,350,0.0,7.0,64,0.00,,BKN250,0.38,VWS V14.01,2013-09-20 23:43:00,
2013-09-20 18:48:00,68.9,56.2,29.97,NNW,335,0.0,7.0,64,0.00,,BKN250,0.38,VWS V14.01,2013-09-20 23:48:00,
2013-09-20 18:53:00,68.8,56.1,29.97,NNW,347,0.0,7.0,64,0.00,,BKN250,0.38,VWS V14.01,2013-09-20 23:53:00,
2013-09-20 18:58:00,68.6,56.0,29.97,North,356,0.0,7.0,64,0.00,,BKN250,0.38,VWS V14.01,2013-09-20 23:58:00,
2013-09-20 19:03:00,68.4,55.8,29.97,North,356,0.0,5.0,64,0.00,,BKN250,0.38,VWS V14.01,2013-09-21 00:03:00,
2013-09-20 19:08:00,68.3,55.7,29.97,North,356,0.0,5.0,64,0.00,,BKN250,0.38,VWS V14.01,2013-09-21 00:08:00,
2013-09-20 19:13:00,68.1,55.9,29.97,North,356,0.0,5.0,65,0.00,,BKN250,0.38,VWS V14.01,2013-09-21 00:13:00,
2013-09-20 19:18:00,67.9,55.7,29.98,NW,311,0.0,5.0,65,0.00,,BKN250,0.38,VWS V14.01,2013-09-21 00:18:00,
2013-09-20 19:23:00,67.8,55.6,29.98,North,359,0.0,5.0,65,0.00,,BKN250,0.38,VWS V14.01,2013-09-21 00:23:00,
2013-09-20 19:28:00,67.4,55.2,29.98,NNW,337,0.0,5.0,65,0.00,,BKN250,0.38,VWS V14.01,2013-09-21 00:28:00,
2013-09-20 19:33:00,67.3,55.6,29.97,North,354,0.0,5.0,66,0.00,,BKN250,0.38,VWS V14.01,2013-09-21 00:33:00,
2013-09-20 19:38:00,67.1,55.4,29.97,North,354,0.0,5.0,66,0.00,,BKN250,0.38,VWS V14.01,2013-09-21 00:38:00,
2013-09-20 19:43:00,66.9,55.2,29.97,North,354,0.0,5.0,66,0.00,,BKN250,0.38,VWS V14.01,2013-09-21 00:43:00,
2013-09-20 19:48:00,66.6,55.3,29.97,North,354,0.0,5.0,67,0.00,,BKN250,0.38,VWS V14.01,2013-09-21 00:48:00,
2013-09-20 19:53:00,66.4,55.1,29.97,North,359,0.0,5.0,67,0.00,,BKN250,0.38,VWS V14.01,2013-09-21 00:53:00,
2013-09-20 19:58:00,66.3,55.0,29.97,NW,325,0.0,5.0,67,0.00,,BKN250,0.38,VWS V14.01,2013-09-21 00:58:00,
2013-09-20 20:03:00,66.1,54.8,29.98,NNW,329,0.0,5.0,67,0.00,,BKN250,0.38,VWS V14.01,2013-09-21 01:03:00,
2013-09-20 20:08:00,66.0,54.7,29.98,NNW,329,0.0,5.0,67,0.00,,BKN250,0.38,VWS V14.01,2013-09-21 01:08:00,
2013-09-20 20:13:00,65.8,54.1,29.98,North,356,0.0,5.0,66,0.00,,BKN250,0.38,VWS V14.01,2013-09-21 01:13:00,
2013-09-20 20:18:00,65.6,54.4,29.98,North,354,3.0,5.0,67,0.00,,BKN250,0.38,VWS V14.01,2013-09-21 01:18:00,
2013-09-20 20:24:00,65.5,54.7,29.98,North,0,0.0,5.0,68,0.00,,BKN250,0.38,VWS V14.01,2013-09-21 01:24:00,
2013-09-20 20:29:00,65.3,54.5,29.98,North,0,0.0,5.0,68,0.00,,BKN250,0.38,VWS V14.01,2013-09-21 01:29:00,
2013-09-20 20:34:00,65.2,54.8,29.98,North,0,0.0,5.0,69,0.00,,BKN250,0.38,VWS V14.01,2013-09-21 01:34:00,
2013-09-20 20:39:00,65.0,54.6,29.98,North,0,0.0,5.0,69,0.00,,BKN250,0.38,VWS V14.01,2013-09-21 01:39:00,
2013-09-20 20:44:00,64.8,54.8,29.98,North,0,0.0,5.0,70,0.00,,BKN250,0.38,VWS V14.01,2013-09-21 01:44:00,
2013-09-20 20:49:00,64.7,54.7,29.98,North,0,0.0,5.0,70,0.00,,BKN250,0.38,VWS V14.01,2013-09-21 01:49:00,
2013-09-20 20:54:00,64.5,54.9,29.98,North,0,0.0,5.0,71,0.00,,BKN250,0.38,VWS V14.01,2013-09-21 01:54:00,
2013-09-20 20:59:00,64.3,55.1,29.98,North,0,0.0,5.0,72,0.00,,BKN250,0.38,VWS V14.01,2013-09-21 01:59:00,
2013-09-20 21:04:00,64.3,55.1,29.99,NNW,342,0.0,2.0,72,0.00,,BKN250,0.38,VWS V14.01,2013-09-21 02:04:00,
2013-09-20 21:09:00,64.2,55.4,29.99,NNW,342,0.0,2.0,73,0.00,,BKN250,0.38,VWS V14.01,2013-09-21 02:09:00,
2013-09-20 21:14:00,64.0,55.2,29.99,NNW,342,0.0,2.0,73,0.00,,BKN250,0.38,VWS V14.01,2013-09-21 02:14:00,
2013-09-20 21:19:00,63.9,55.5,29.99,NNW,342,0.0,2.0,74,0.00,,BKN250,0.38,VWS V14.01,2013-09-21 02:19:00,
2013-09-20 21:24:00,63.7,55.6,29.99,NNW,342,0.0,2.0,75,0.00,,BKN250,0.38,VWS V14.01,2013-09-21 02:24:00,
2013-09-20 21:29:00,63.5,55.8,29.99,NNW,342,0.0,2.0,76,0.00,,BKN250,0.38,VWS V14.01,2013-09-21 02:29:00,
2013-09-20 21:34:00,63.2,55.5,29.99,NNW,342,0.0,2.0,76,0.00,,BKN250,0.38,VWS V14.01,2013-09-21 02:34:00,
2013-09-20 21:39:00,63.1,55.8,29.99,NNW,342,0.0,2.0,77,0.00,,BKN250,0.38,VWS V14.01,2013-09-21 02:39:00,
2013-09-20 21:44:00,63.1,56.1,29.99,NNW,342,0.0,2.0,78,0.00,,BKN250,0.38,VWS V14.01,2013-09-21 02:44:00,
2013-09-20 21:50:00,62.9,55.9,29.99,NNW,342,0.0,2.0,78,0.00,,BKN250,0.38,VWS V14.01,2013-09-21 02:50:00,
2013-09-20 21:55:00,62.9,55.9,29.99,NNW,342,0.0,2.0,78,0.00,,BKN250,0.38,VWS V14.01,2013-09-21 02:55:00,
2013-09-20 22:00:00,62.7,56.1,29.99,NNW,342,0.0,2.0,79,0.00,,BKN250,0.38,VWS V14.01,2013-09-21 03:00:00,
2013-09-20 22:05:00,62.7,56.1,29.99,NNW,342,0.0,0.0,79,0.00,,BKN250,0.38,VWS V14.01,2013-09-21 03:05:00,
2013-09-20 22:10:00,62.6,56.0,29.99,NNW,342,1.0,2.0,79,0.00,,BKN250,0.38,VWS V14.01,2013-09-21 03:10:00,
2013-09-20 22:15:00,62.4,55.8,30.00,NNW,342,0.0,2.0,79,0.00,,BKN250,0.38,VWS V14.01,2013-09-21 03:15:00,
2013-09-20 22:20:00,62.4,55.8,30.00,NNW,342,2.0,2.0,79,0.00,,BKN250,0.38,VWS V14.01,2013-09-21 03:20:00,
2013-09-20 22:25:00,62.3,56.1,30.00,NNW,342,0.0,2.0,80,0.00,,BKN250,0.38,VWS V14.01,2013-09-21 03:25:00,
2013-09-20 22:30:00,62.1,55.9,30.00,NNW,342,0.0,2.0,80,0.00,,BKN250,0.38,VWS V14.01,2013-09-21 03:30:00,
2013-09-20 22:35:00,62.0,55.8,30.00,NNW,342,0.0,2.0,80,0.00,,BKN250,0.38,VWS V14.01,2013-09-21 03:35:00,
2013-09-20 22:40:00,61.8,55.9,30.00,NNW,342,0.0,2.0,81,0.00,,BKN250,0.38,VWS V14.01,2013-09-21 03:40:00,
2013-09-20 22:45:00,61.6,55.7,30.01,NNW,342,0.0,2.0,81,0.00,,BKN250,0.38,VWS V14.01,2013-09-21 03:45:00,
2013-09-20 22:50:00,61.5,56.0,30.01,NNW,342,0.0,2.0,82,0.00,,BKN250,0.38,VWS V14.01,2013-09-21 03:50:00,
2013-09-20 22:55:00,61.3,55.8,30.01,NNW,342,0.0,2.0,82,0.00,,BKN250,0.38,VWS V14.01,2013-09-21 03:55:00,
2013-09-20 23:00:00,61.3,56.1,30.01,NNW,342,0.0,0.0,83,0.00,,SCT250,0.38,VWS V14.01,2013-09-21 04:00:00,
2013-09-20 23:01:00,61.3,56.1,30.01,NNW,342,0.0,1.0,83,0.00,,SCT250,0.38,VWS V14.01,2013-09-21 04:01:00,
2013-09-20 23:04:00,61.2,56.0,30.01,NNW,342,0.0,1.0,83,0.00,,SCT250,0.38,VWS V14.01,2013-09-21 04:04:00,
2013-09-20 23:06:00,61.2,56.0,30.01,NNW,342,0.0,1.0,83,0.00,,SCT250,0.38,VWS V14.01,2013-09-21 04:06:00,
2013-09-20 23:11:00,61.0,56.1,30.01,NNW,342,0.0,1.0,84,0.00,,SCT250,0.38,VWS V14.01,2013-09-21 04:11:00,
2013-09-20 23:16:00,60.7,55.8,30.01,NNW,342,0.0,1.0,84,0.00,,SCT250,0.38,VWS V14.01,2013-09-21 04:16:00,
2013-09-20 23:21:00,60.5,56.0,30.01,NNW,342,0.0,1.0,85,0.00,,SCT250,0.38,VWS V14.01,2013-09-21 04:21:00,
2013-09-20 23:26:00,60.4,55.9,30.01,NNW,342,0.0,1.0,85,0.00,,SCT250,0.38,VWS V14.01,2013-09-21 04:26:00,
2013-09-20 23:31:00,60.2,55.7,30.01,NNW,342,0.0,1.0,85,0.00,,SCT250,0.38,VWS V14.01,2013-09-21 04:31:00,
2013-09-20 23:36:00,60.1,55.9,30.01,NNW,342,0.0,1.0,86,0.00,,SCT250,0.38,VWS V14.01,2013-09-21 04:36:00,
2013-09-20 23:41:00,59.8,55.6,30.01,NNW,342,0.0,2.0,86,0.00,,SCT250,0.38,VWS V14.01,2013-09-21 04:41:00,
2013-09-20 23:46:00,59.6,55.4,30.01,NNW,342,0.0,2.0,86,0.00,,SCT250,0.38,VWS V14.01,2013-09-21 04:46:00,
2013-09-20 23:51:00,59.5,55.3,30.01,NNW,342,0.0,2.0,86,0.00,,SCT250,0.38,VWS V14.01,2013-09-21 04:51:00,
2013-09-20 23:56:00,59.5,55.6,30.01,NNW,342,0.0,2.0,87,0.00,,SCT250,0.38,VWS V14.01,2013-09-21 04:56:00,